TimeCDT,TemperatureF,Dew PointF,Humidity,Sea Level PressureIn,VisibilityMPH,Wind Direction,Wind SpeedMPH,Gust SpeedMPH,PrecipitationIn,Events,Conditions,WindDirDegrees,DateUTC
12:15 AM,46.4,44.2,92,30.33,10.0,Calm,Calm,-,N/A,,Clear,0,2013-09-17 05:15:00
12:35 AM,45.0,43.3,94,30.34,10.0,Calm,Calm,-,N/A,,Clear,0,2013-09-17 05:35:00
12:55 AM,42.8,41.5,95,30.34,10.0,Calm,Calm,-,N/A,,Clear,0,2013-09-17 05:55:00
1:15 AM,42.8,42.1,97,30.34,10.0,Calm,Calm,-,N/A,,Clear,0,2013-09-17 06:15:00
1:35 AM,42.4,41.7,97,30.34,10.0,ENE,3.5,-,N/A,,Clear,70,2013-09-17 06:35:00
1:55 AM,43.3,42.6,97,30.34,10.0,Calm,Calm,-,N/A,,Clear,0,2013-09-17 06:55:00
2:15 AM,42.6,41.9,97,30.35,7.0,Calm,Calm,-,N/A,,Clear,0,2013-09-17 07:15:00
2:35 AM,41.9,41.2,97,30.35,7.0,Calm,Calm,-,N/A,,Clear,0,2013-09-17 07:35:00
2:55 AM,41.4,40.6,97,30.35,10.0,Calm,Calm,-,N/A,,Clear,0,2013-09-17 07:55:00
3:15 AM,41.9,41.2,97,30.35,10.0,East,3.5,-,N/A,,Clear,80,2013-09-17 08:15:00
3:35 AM,42.3,41.5,97,30.35,10.0,Calm,Calm,-,N/A,,Clear,0,2013-09-17 08:35:00
3:55 AM,42.3,41.5,97,30.34,10.0,East,3.5,-,N/A,,Clear,90,2013-09-17 08:55:00
4:15 AM,43.0,42.3,97,30.34,10.0,East,3.5,-,N/A,,Clear,90,2013-09-17 09:15:00
4:35 AM,43.9,43.0,97,30.34,10.0,East,3.5,-,N/A,,Clear,100,2013-09-17 09:35:00
4:55 AM,43.7,42.6,96,30.35,10.0,East,3.5,-,N/A,,Clear,90,2013-09-17 09:55:00
5:15 AM,42.6,41.7,97,30.34,7.0,East,3.5,-,N/A,,Clear,80,2013-09-17 10:15:00
5:35 AM,42.8,42.1,97,30.35,7.0,East,4.6,-,N/A,,Clear,90,2013-09-17 10:35:00
5:55 AM,43.5,42.6,97,30.35,7.0,East,3.5,-,N/A,,Clear,90,2013-09-17 10:55:00
6:15 AM,43.5,42.6,97,30.34,7.0,East,3.5,-,N/A,,Clear,80,2013-09-17 11:15:00
6:35 AM,43.0,42.1,97,30.34,5.0,East,3.5,-,N/A,,Clear,90,2013-09-17 11:35:00
6:55 AM,43.5,42.6,97,30.35,5.0,East,3.5,-,N/A,,Clear,80,2013-09-17 11:55:00
7:15 AM,44.4,43.5,97,30.35,5.0,East,4.6,-,N/A,,Clear,80,2013-09-17 12:15:00
7:35 AM,46.4,45.3,96,30.35,7.0,East,3.5,-,N/A,,Clear,100,2013-09-17 12:35:00
7:55 AM,48.6,46.9,94,30.35,10.0,ESE,5.8,-,N/A,,Clear,110,2013-09-17 12:55:00
8:15 AM,50.4,47.7,90,30.35,10.0,East,8.1,-,N/A,,Clear,100,2013-09-17 13:15:00
8:35 AM,52.3,48.6,87,30.35,10.0,ESE,9.2,-,N/A,,Clear,120,2013-09-17 13:35:00
8:55 AM,53.8,49.1,84,30.36,10.0,ESE,5.8,-,N/A,,Clear,120,2013-09-17 13:55:00
9:15 AM,55.6,49.1,79,30.35,10.0,ESE,6.9,-,N/A,,Clear,120,2013-09-17 14:15:00
9:35 AM,57.2,48.9,74,30.35,10.0,SE,8.1,-,N/A,,Clear,130,2013-09-17 14:35:00
9:55 AM,59.5,49.3,69,30.34,10.0,ESE,11.5,-,N/A,,Clear,110,2013-09-17 14:55:00
10:15 AM,61.2,49.1,65,30.34,10.0,ESE,8.1,-,N/A,,Clear,120,2013-09-17 15:15:00
10:35 AM,62.6,49.1,61,30.34,10.0,SSE,8.1,-,N/A,,Clear,150,2013-09-17 15:35:00
10:55 AM,63.5,48.9,59,30.34,10.0,SE,8.1,-,N/A,,Clear,130,2013-09-17 15:55:00
11:15 AM,65.1,49.1,56,30.33,10.0,ESE,5.8,-,N/A,,Clear,120,2013-09-17 16:15:00
11:35 AM,66.0,48.9,54,30.32,10.0,ESE,8.1,-,N/A,,Clear,120,2013-09-17 16:35:00
11:55 AM,66.4,48.7,53,30.31,10.0,East,6.9,-,N/A,,Clear,90,2013-09-17 16:55:00
12:15 PM,66.6,48.9,53,30.30,10.0,SE,9.2,-,N/A,,Clear,130,2013-09-17 17:15:00
12:35 PM,67.8,48.6,50,30.29,10.0,ESE,5.8,-,N/A,,Clear,120,2013-09-17 17:35:00
12:55 PM,68.2,47.8,48,30.28,10.0,ESE,6.9,-,N/A,,Clear,110,2013-09-17 17:55:00
1:15 PM,68.5,47.8,48,30.27,10.0,East,5.8,-,N/A,,Clear,100,2013-09-17 18:15:00
1:35 PM,69.1,47.8,47,30.26,10.0,Calm,Calm,-,N/A,,Clear,0,2013-09-17 18:35:00
1:55 PM,69.3,48.2,47,30.25,10.0,Calm,Calm,-,N/A,,Clear,0,2013-09-17 18:55:00
2:15 PM,69.6,48.6,47,30.24,10.0,SE,6.9,-,N/A,,Clear,130,2013-09-17 19:15:00
2:35 PM,69.4,48.4,47,30.24,10.0,ESE,10.4,-,N/A,,Clear,110,2013-09-17 19:35:00
2:55 PM,69.8,48.2,46,30.23,10.0,ESE,6.9,-,N/A,,Clear,120,2013-09-17 19:55:00
3:15 PM,70.3,48.0,45,30.22,10.0,ESE,5.8,-,N/A,,Clear,120,2013-09-17 20:15:00
3:35 PM,70.0,47.3,44,30.22,10.0,South,8.1,-,N/A,,Clear,170,2013-09-17 20:35:00
3:55 PM,69.8,46.8,44,30.21,10.0,East,5.8,-,N/A,,Clear,100,2013-09-17 20:55:00
4:15 PM,69.6,46.8,44,30.21,10.0,SE,4.6,-,N/A,,Clear,130,2013-09-17 21:15:00
4:35 PM,69.3,47.3,45,30.20,10.0,East,8.1,-,N/A,,Clear,100,2013-09-17 21:35:00
4:55 PM,69.3,47.8,46,30.20,10.0,ESE,6.9,-,N/A,,Clear,110,2013-09-17 21:55:00
5:15 PM,68.4,47.1,47,30.19,10.0,ESE,5.8,-,N/A,,Clear,110,2013-09-17 22:15:00
5:35 PM,67.6,48.4,50,30.19,10.0,SE,5.8,-,N/A,,Clear,130,2013-09-17 22:35:00
5:55 PM,67.1,49.3,53,30.19,10.0,ESE,5.8,-,N/A,,Clear,110,2013-09-17 22:55:00
6:15 PM,65.7,50.0,57,30.18,10.0,East,3.5,-,N/A,,Clear,100,2013-09-17 23:15:00
6:35 PM,64.0,51.1,63,30.18,10.0,East,3.5,-,N/A,,Clear,100,2013-09-17 23:35:00
6:55 PM,62.6,51.3,66,30.18,10.0,East,5.8,-,N/A,,Clear,90,2013-09-17 23:55:00
7:15 PM,61.2,50.9,69,30.18,10.0,East,5.8,-,N/A,,Clear,90,2013-09-18 00:15:00
7:35 PM,60.3,50.9,71,30.18,10.0,East,4.6,-,N/A,,Clear,90,2013-09-18 00:35:00
7:55 PM,59.4,50.7,73,30.18,10.0,East,4.6,-,N/A,,Clear,90,2013-09-18 00:55:00
8:15 PM,59.2,50.2,72,30.18,10.0,East,4.6,-,N/A,,Clear,80,2013-09-18 01:15:00
8:35 PM,58.5,49.8,73,30.17,10.0,ENE,3.5,-,N/A,,Clear,70,2013-09-18 01:35:00
8:55 PM,57.0,49.8,77,30.17,10.0,East,3.5,-,N/A,,Clear,90,2013-09-18 01:55:00
9:15 PM,56.1,51.1,83,30.17,10.0,Calm,Calm,-,N/A,,Clear,0,2013-09-18 02:15:00
9:35 PM,54.7,50.5,86,30.17,10.0,Calm,Calm,-,N/A,,Clear,0,2013-09-18 02:35:00
9:55 PM,53.8,50.4,88,30.17,10.0,Calm,Calm,-,N/A,,Clear,0,2013-09-18 02:55:00
10:15 PM,52.9,50.2,91,30.17,10.0,Calm,Calm,-,N/A,,Clear,0,2013-09-18 03:15:00
10:35 PM,53.2,50.9,92,30.17,10.0,ESE,3.5,-,N/A,,Clear,110,2013-09-18 03:35:00
10:55 PM,55.8,50.9,84,30.16,10.0,ESE,5.8,-,N/A,,Clear,120,2013-09-18 03:55:00
11:15 PM,55.9,50.9,83,30.16,10.0,ESE,4.6,-,N/A,,Clear,110,2013-09-18 04:15:00
11:35 PM,56.3,50.5,81,30.15,10.0,ESE,4.6,-,N/A,,Clear,110,2013-09-18 04:35:00
11:55 PM,56.3,50.4,80,30.15,10.0,ESE,4.6,-,N/A,,Clear,110,2013-09-18 04:55:00